Location: Gollag?dem
(17.0207°N, 80.7261°E)
Time: 01:17:02
(UTC+00:00)

Cosmos 773 Rocket - Pass Details

Date: 03 August 2024
Orbit: 742 x 775 km, 74.1° (Epoch: 18 September)

Event Time Altitude Azimuth Distance (km) Brightness Sun altitude
Exits shadow 22:32:55 67° 257° (WSW) 808 3.8 -23.9°
Maximum altitude 22:33:14 69° 284° (WNW) 797 3.8 -23.9°
Drops below altitude 10° 22:38:21 10° 7° (N) 2,266 6.9 -22.8°
Sets 22:40:44 0° 10° (N) 3,196 7.7 -22.3°
